Flag for Germany Weather past 2 weeks in Dillenburg, Hesse, Germany

Now
46 °F

Fog.


Feels Like: 46 °F
Forecast: 55 / 70 °F
Wind: 1 mph from Northeast

Location: Giessen

Current Time: Aug 28, 2014 at 7:48:37 AM

Latest Report: Aug 28, 2014 at 7:00 AM


Visibility: 4 mi

Pressure: 30.08 "Hg

Humidity: 97%

Dew point: 45 °F

Location of DillenburgLocation

Historic Weather in Dillenburg — Graph

°F

Dillenburg temperature yesterday

Maximum temperature yesterday: 70 °F (at 7:00 PM)
Minimum temperature yesterday: 49 °F (at 11:00 PM)
Average temperature yesterday: 59 °F

Past Weeks' High & Low Weather Summary

 TemperatureHumidityPressure
High70 °F (Aug 27, 7:00 PM)98% (Aug 15, 7:00 AM)30.12 "Hg (Aug 15, 7:00 AM)
Low42 °F (Aug 25, 4:00 AM)40% (Aug 21, 4:00 PM)29.65 "Hg (Aug 13, 5:00 PM)
Average56 °F81%29.93 "Hg
* Reported Aug 13 6:00 AM — Aug 28 6:00 AM, Dillenburg, Weather by CustomWeather, © 2014

Note: Actual official high and low records may vary slightly from our data, if they occured in-between our weather recording intervals... More about our weather records

Advertising

Dillenburg weather history for previous 24 hours

 ConditionsComfort  
Time TempWeatherWind HumidityBarometerVisibility
6:00 AM
Aug 28
44 °FClear.1 mph97%30.08 "Hg5 mi
5:00 AM45 °FClear.1 mph97%30.08 "Hg6 mi
4:00 AM46 °FFog.1 mph97%30.08 "Hg4 mi
3:00 AM47 °FOvercast.2 mph96%30.09 "Hg6 mi
2:00 AM47 °FPassing clouds.1 mph95%30.09 "Hg8 mi
1:00 AM49 °FOvercast.2 mph94%30.08 "Hg13 mi
12:00 AM49 °FOvercast.No wind91%30.08 "Hg22 mi
11:00 PM
Aug 27
49 °FPassing clouds.1 mph93%30.07 "Hg25 mi
10:00 PM55 °FPassing clouds.1 mph85%30.06 "Hg31 mi
9:00 PM56 °FPassing clouds.1 mph82%30.05 "Hg12 mi
8:00 PM64 °FSunny.1 mph55%30.03 "Hg40 mi
7:00 PM70 °FPassing clouds.1 mph42%30.01 "Hg43 mi
6:00 PM68 °FSunny.1 mph45%30.01 "Hg34 mi
5:00 PM67 °FSunny.2 mph44%30.01 "Hg28 mi
4:00 PM67 °FSunny.1 mph43%30.02 "Hg28 mi
3:00 PM67 °FPassing clouds.2 mph53%30.01 "Hg31 mi
2:00 PM66 °FPassing clouds.2 mph50%30.02 "Hg22 mi
1:00 PM65 °FSunny.3 mph54%30.02 "Hg28 mi
12:00 PM63 °FScattered clouds.3 mph64%30.02 "Hg17 mi
11:00 AM59 °FOvercast.3 mph75%30.01 "Hg9 mi
10:00 AM57 °FSunny.2 mph87%30.00 "Hg6 mi
9:00 AM55 °FFog.2 mph93%29.98 "Hg4 mi
8:00 AM52 °FFog.2 mph97%29.96 "Hg2 mi
7:00 AM51 °FFog.2 mph97%29.93 "Hg3 mi
Weather by CustomWeather, © 2014

See weather overviewHow to use our weather pages